[[{"header":{"parameterUnit":"m.s-1","parameterCategory":1,"la1":30.2991,"la2":30.254,"lo1":-89.0895,"lo2":-89.0444,"dy":0.0017,"dx":0.0017,"nx":28,"ny":28,"refTime":"2025-01-25T03:00:00:Z","depth":0,"parameterNumber":2,"parameterNumberName":"U-component_of_WINDS"},"data":[0,0,0,0,0,0,0,0,0,0,0,0,0,0,0,0,0,0,0,0,0,0,0,0,0,0,0,0,0,0,0,0,0,0,0,0,0,0,0,0,0,0,0,0,0,0,0,0,0,0,0,0,0,0,0,0,0,0,-2.9063,-2.9064,0,-2.9124,-2.9125,-2.9125,-2.9103,-2.9101,-2.91,-2.9098,-2.9162,-2.9165,-2.9168,0,0,0,0,0,0,0,0,0,0,0,0,0,-2.8927,-2.893,-2.9063,-2.9064,-2.9065,-2.9124,-2.9125,-2.9126,-2.9103,-2.9101,-2.9099,-2.9098,-2.9161,-2.9165,-2.9168,0,0,0,0,0,0,0,0,0,0,0,0,0,-2.8987,-2.8931,-2.9063,-2.906,-2.9061,-2.9124,-2.9125,-2.9126,-2.9103,-2.9101,-2.9099,-2.9097,-2.916,-2.9165,-2.9169,-2.9239,0,0,-2.9183,-2.9185,0,0,0,0,0,0,0,0,-2.8984,-2.8992,-2.906,-2.9061,-2.9061,-2.9104,-2.91,-2.9164,-2.9104,-2.9087,-2.9098,-2.9096,-2.9145,-2.915,-2.9166,-2.9242,-2.9244,-2.9183,-2.9186,-2.9188,-2.9189,0,0,0,0,0,0,0,-2.898,-2.8989,-2.9087,-2.9061,-2.9062,-2.9056,-2.9062,-2.9112,-2.9127,-2.9088,-2.9087,-2.9094,-2.9144,-2.9162,-2.9168,-2.9245,-2.9183,-2.9187,-2.919,-2.9192,-2.9379,-2.9381,0,0,0,0,0,0,-2.8975,-2.8986,-2.9085,-2.9089,-2.9017,-2.906,-2.9067,-2.9092,-2.9126,-2.9129,-2.9096,-2.9093,-2.9155,-2.9162,-2.917,-2.9252,-2.9188,-2.9192,-2.9195,-2.9377,-2.938,-2.9382,0,0,0,0,0,0,-2.8972,-2.8984,-2.9083,-2.9037,-2.9049,-2.9065,-2.9093,-2.9094,-2.9112,-2.9132,-2.9135,-2.9111,-2.9154,-2.9163,-2.9221,-2.9254,-2.9194,-2.9198,-2.9374,-2.9378,-2.9381,-2.9418,0,0,0,0,0,0,-2.8969,-2.8983,-2.901,-2.9038,-2.9052,-2.9133,-2.9095,-2.9097,-2.9119,-2.9116,-2.9147,-2.915,-2.9153,-2.9215,-2.9226,-2.9259,-2.9202,-2.9371,-2.9376,-2.938,-2.9414,-2.9423,-2.943,0,0,0,0,0,-2.8964,-2.9019,-2.9011,-2.9024,-2.9085,-2.9135,-2.9143,-2.9145,-2.9122,-2.9149,-2.9162,-2.9149,-2.9249,-2.9221,-2.9233,-2.9268,-2.9369,-2.9375,-2.938,-2.9411,-2.9421,-2.943,0,0,0,0,0,0,-2.8995,-2.9022,-2.9015,-2.908,-2.9105,-2.9131,-2.9165,-2.9156,-2.9189,-2.9184,-2.9186,-2.9193,-2.9252,-2.9266,-2.9234,-2.9337,-2.9306,-2.9314,-2.9325,-2.9335,-2.9343,-2.9338,-2.9205,0,0,0,0,0,-2.9009,-2.9047,-2.9069,-2.9125,-2.9138,-2.9149,-2.9171,-2.917,-2.9197,-2.9208,-2.9225,-2.9251,-2.9288,-2.9313,-2.9348,-2.9417,-2.9422,-2.9447,-2.9455,-2.9461,-2.9467,-2.9503,-2.9514,-2.9399,-2.9399,-2.9399,0,0,-2.904,-2.9059,-2.9083,-2.9132,-2.9151,-2.919,-2.9159,-2.9202,-2.923,-2.9214,-2.9269,-2.9283,-2.9312,-2.9375,-2.9404,-2.9389,-2.95,-2.9468,-2.9472,-2.9475,-2.9509,-2.952,-2.953,-2.9403,-2.9402,-2.9401,0,0,-2.9114,-2.9134,-2.9181,-2.9201,-2.9231,-2.9238,-2.9249,-2.9276,-2.9284,-2.9339,-2.9328,-2.9362,-2.9427,-2.9448,-2.9467,-2.9548,-2.9537,-2.956,-2.96,-2.9635,-2.9644,-2.9652,-2.968,-2.969,-2.9567,-2.9567,-2.9567,0,-2.9148,-2.9206,-2.9207,-2.9251,-2.9272,-2.9258,-2.9306,-2.9326,-2.9366,-2.9381,-2.9363,-2.9443,-2.9462,-2.9529,-2.9548,-2.9565,-2.9577,-2.9556,-2.9643,-2.9651,-2.9658,-2.9685,-2.9695,-2.9569,-2.9569,-2.9569,-2.9569,0,-2.9246,-2.9286,-2.9321,-2.9359,-2.9384,-2.943,-2.9437,-2.9463,-2.946,-2.9469,-2.9525,-2.9547,-2.9586,-2.9602,-2.96,-2.9669,-2.9658,-2.9642,-2.961,-2.9672,-2.9696,-2.9707,-2.9573,-2.9572,-2.9571,-2.9571,0,0,-2.9341,-2.9378,-2.9391,-2.9407,-2.9438,-2.947,-2.9515,-2.9552,-2.9573,-2.9601,-2.9638,-2.9693,-2.9677,-2.9699,-2.97,-2.973,-2.9792,-2.971,-2.9711,-2.9723,-2.9867,-2.9877,-2.9889,-2.9785,-2.9787,-2.9789,-2.9864,0,-2.9417,-2.9495,-2.9496,-2.9568,-2.9604,-2.9592,-2.9631,-2.9654,-2.9664,-2.9696,-2.9707,-2.9745,-2.9723,-2.9735,-2.9765,-2.9778,-2.982,-2.9773,-2.9819,-2.982,-2.981,-2.9902,-2.9914,-2.9984,-2.9873,-2.9875,-2.9876,0,-2.9516,-2.9545,-2.962,-2.9645,-2.966,-2.9695,-2.9729,-2.976,-2.9786,-2.9791,-2.9815,-2.981,-2.9856,-2.9824,-2.9886,-2.9853,-2.9873,-2.9882,-2.9884,-2.9887,-2.9851,-2.9906,-3.0006,-3.0016,-2.9892,-2.9891,-2.989,0,-2.9575,-2.9635,-2.9686,-2.9701,-2.9732,-2.9756,-2.977,-2.9794,-2.9816,-2.9846,-2.986,-2.9896,-2.9914,-2.9942,-2.9947,-2.9923,-3.0008,-2.9977,-3.0013,-3.0013,-3.003,-3.0029,-3.0133,-3.0045,-3.0045,-3.0045,-3.0045,0,-2.9659,-2.9705,-2.9713,-2.9745,-2.9796,-2.9798,-2.9848,-2.986,-2.9881,-2.9915,-2.9908,-2.9939,-2.9945,-2.9978,-2.9982,-3.0032,-3.0041,-3.0046,-3.0046,-3.0046,-3.0045,-3.0057,-3.0052,-3.0048,-3.0047,-3.0047,-3.0046,0,-2.9734,-2.9742,-2.9797,-2.9821,-2.9828,-2.9865,-2.9885,-2.9916,-2.9924,-2.9967,-2.9977,-2.9991,-3.0029,-3.0037,-3.0083,-3.0086,-3.0145,-3.0141,-3.0135,-3.0134,-3.0169,-3.0165,-3.0283,-3.0298,-3.0203,-3.0203,-3.0204,0,-2.9785,-2.982,-2.9848,-2.9869,-2.9884,-2.992,-2.9942,-2.9945,-2.9968,-3.0,-3.0026,-3.0064,-3.0094,-3.0156,-3.017,-3.0205,-3.0201,-3.024,-3.0206,-3.0204,-3.0199,-3.0196,-3.0199,-3.0246,-3.0247,-3.0248,-3.0248,0,-2.9876,-2.9878,-2.991,-2.9943,-2.9969,-2.9996,-3.0021,-3.0039,-3.0046,-3.0072,-3.0111,-3.0134,-3.018,-3.0217,-3.0252,-3.0267,-3.0258,-3.0259,-3.0269,-3.0268,-3.0262,-3.0264,-3.0151,-3.0256,-3.0255,-3.0255,-3.0254,-3.0254,-2.9939,-2.9969,-2.9993,-3.0028,-3.0047,-3.0071,-3.01,-3.0112,-3.0144,-3.0181,-3.0181,-3.0223,-3.0248,-3.0293,-3.031,-3.0343,-3.0331,-3.0345,-3.0349,-3.0352,-3.0354,-3.0258,-3.035,-3.035,-3.0349,-3.0349,-3.0349,0,-3.0028,-3.0042,-3.0075,-3.0109,-3.0137,-3.0127,-3.0154,-3.0178,-3.0215,-3.0238,-3.0268,-3.0312,-3.0347,-3.0364,-3.0399,-3.0422,-3.0419,-3.0431,-3.0429,-3.0432,-3.0364,-3.0351,-3.0433,-3.0433,-3.0433,-3.0433,-3.0433,-3.0433,-3.0077,-3.0126,-3.013,-3.0189,-3.0203,-3.0243,-3.026,-3.0281,-3.0299,-3.0349,-3.0378,-3.0388,-3.0409,-3.0445,-3.0478,-3.0482,-3.0494,-3.0508,-3.051,-3.0446,-3.0437,-3.0429,-3.0417,-3.0511,-3.0511,-3.0574,-3.0575,-3.0576]},{"header":{"parameterUnit":"m.s-1","parameterCategory":1,"la1":30.2991,"la2":30.254,"lo1":-89.0895,"lo2":-89.0444,"dy":0.0017,"dx":0.0017,"nx":28,"ny":28,"refTime":"2025-01-25T03:00:00:Z","depth":0,"parameterNumber":3,"parameterNumberName":"V-component_of_WINDS"},"data":[0,0,0,0,0,0,0,0,0,0,0,0,0,0,0,0,0,0,0,0,0,0,0,0,0,0,0,0,0,0,0,0,0,0,0,0,0,0,0,0,0,0,0,0,0,0,0,0,0,0,0,0,0,0,0,0,0,0,1.4826,1.4827,0,1.4923,1.4924,1.4925,1.4965,1.4965,1.4965,1.4965,1.5068,1.5071,1.5074,0,0,0,0,0,0,0,0,0,0,0,0,0,1.4679,1.4682,1.4825,1.4827,1.4828,1.4922,1.4924,1.4925,1.4965,1.4965,1.4965,1.4965,1.5067,1.5071,1.5074,0,0,0,0,0,0,0,0,0,0,0,0,0,1.4756,1.4683,1.4825,1.4859,1.4863,1.4922,1.4924,1.4926,1.4965,1.4965,1.4965,1.4965,1.5066,1.507,1.5075,1.5108,0,0,1.5088,1.509,0,0,0,0,0,0,0,0,1.4752,1.4762,1.4853,1.4857,1.4862,1.4931,1.491,1.4987,1.4966,1.4927,1.4965,1.4964,1.5023,1.5031,1.505,1.5113,1.5117,1.5088,1.5091,1.5093,1.5094,0,0,0,0,0,0,0,1.4746,1.4758,1.4864,1.4854,1.486,1.4871,1.4882,1.4925,1.4976,1.493,1.4933,1.4944,1.5025,1.5046,1.5053,1.5119,1.5088,1.5092,1.5095,1.5097,1.5216,1.5216,0,0,0,0,0,0,1.4735,1.4753,1.4861,1.4867,1.4805,1.4874,1.4886,1.4909,1.4975,1.4985,1.4944,1.4946,1.5038,1.5048,1.5057,1.5101,1.5093,1.5097,1.51,1.5215,1.5216,1.5216,0,0,0,0,0,0,1.4732,1.4744,1.4857,1.4811,1.4826,1.4877,1.4903,1.4912,1.4932,1.4986,1.4995,1.4955,1.5038,1.505,1.5095,1.5105,1.5099,1.5103,1.5214,1.5215,1.5216,1.519,0,0,0,0,0,0,1.4727,1.4743,1.4755,1.4811,1.4828,1.4893,1.4904,1.4914,1.4939,1.4942,1.4999,1.5008,1.5039,1.5088,1.5099,1.5111,1.5107,1.5214,1.5215,1.5216,1.519,1.519,1.5189,0,0,0,0,0,1.4722,1.4744,1.4755,1.4768,1.4844,1.4893,1.4903,1.4937,1.4939,1.4953,1.4988,1.5006,1.5102,1.5092,1.5105,1.5119,1.5213,1.5215,1.5216,1.519,1.519,1.5189,0,0,0,0,0,0,1.469,1.4752,1.4765,1.4806,1.4844,1.49,1.4918,1.4936,1.4975,1.4976,1.5018,1.503,1.5072,1.51,1.5088,1.5155,1.5159,1.5163,1.5136,1.5135,1.5135,1.5128,1.511,0,0,0,0,0,1.4687,1.472,1.4773,1.4804,1.4822,1.4867,1.4889,1.4912,1.4953,1.497,1.5008,1.5049,1.5088,1.5113,1.5152,1.5194,1.5208,1.521,1.5209,1.5209,1.5212,1.5237,1.5239,1.522,1.522,1.522,0,0,1.4683,1.4721,1.4739,1.4799,1.4831,1.4865,1.488,1.4916,1.4942,1.4976,1.502,1.505,1.5098,1.5141,1.5162,1.5166,1.522,1.521,1.5209,1.5213,1.5238,1.524,1.5242,1.5221,1.5221,1.522,0,0,1.4692,1.4723,1.4753,1.4785,1.4832,1.4862,1.4869,1.4922,1.4943,1.4988,1.5014,1.5047,1.5113,1.5147,1.5173,1.5195,1.5214,1.5207,1.5205,1.5229,1.5231,1.5232,1.5242,1.5244,1.5209,1.5209,1.5209,0,1.4681,1.4732,1.4767,1.4801,1.4827,1.4858,1.4889,1.4919,1.4977,1.4995,1.4998,1.5083,1.5117,1.517,1.5175,1.5194,1.5205,1.5201,1.5228,1.5229,1.5232,1.5241,1.5244,1.5208,1.5208,1.5208,1.5209,0,1.4717,1.4752,1.4771,1.4825,1.4854,1.4886,1.4927,1.4952,1.4972,1.5002,1.5048,1.509,1.5139,1.5153,1.5174,1.5209,1.5209,1.5219,1.5224,1.5232,1.5241,1.5245,1.5207,1.5207,1.5207,1.5208,0,0,1.4709,1.4782,1.4788,1.4814,1.4869,1.4898,1.4933,1.4979,1.5,1.504,1.5071,1.5127,1.5136,1.5165,1.519,1.5211,1.5228,1.5219,1.5221,1.522,1.5271,1.5264,1.5267,1.524,1.5241,1.5242,1.5267,0,1.4727,1.4789,1.4821,1.487,1.4904,1.4934,1.4965,1.5003,1.5031,1.5065,1.5098,1.5137,1.5146,1.5164,1.5186,1.5221,1.5239,1.522,1.5271,1.5273,1.526,1.5272,1.5265,1.5287,1.5271,1.5272,1.5272,0,1.4756,1.4794,1.4846,1.4898,1.4914,1.494,1.4986,1.5018,1.5062,1.5081,1.5114,1.5138,1.5178,1.5179,1.5234,1.522,1.5244,1.5264,1.5266,1.5273,1.5274,1.5281,1.5294,1.5298,1.5278,1.5278,1.5277,0,1.4747,1.4811,1.4851,1.4872,1.4933,1.4951,1.4978,1.5021,1.5048,1.5088,1.5106,1.515,1.5175,1.521,1.5246,1.5243,1.5299,1.5302,1.5317,1.5316,1.5329,1.5327,1.5347,1.5341,1.5341,1.5341,1.5341,0,1.4764,1.4795,1.4847,1.4872,1.4908,1.4945,1.498,1.501,1.5048,1.508,1.5109,1.5139,1.5184,1.522,1.5249,1.5291,1.5302,1.532,1.5327,1.5318,1.5316,1.5335,1.5335,1.5342,1.5342,1.5341,1.5341,0,1.4759,1.4796,1.4841,1.4895,1.491,1.4934,1.4981,1.5007,1.5037,1.5077,1.5089,1.5136,1.518,1.5219,1.5277,1.5297,1.534,1.5349,1.5325,1.5329,1.5342,1.5341,1.5376,1.5383,1.537,1.537,1.537,0,1.4768,1.4793,1.4849,1.4872,1.4898,1.4934,1.4961,1.4999,1.5026,1.5079,1.5098,1.5144,1.5182,1.5251,1.5292,1.5336,1.5347,1.5356,1.5354,1.5345,1.5349,1.5348,1.5351,1.5356,1.5356,1.5356,1.5356,0,1.4781,1.4798,1.4834,1.4878,1.4909,1.4945,1.4982,1.5,1.5045,1.5074,1.5118,1.5148,1.5207,1.5253,1.5302,1.5331,1.5352,1.5356,1.5363,1.5354,1.534,1.5349,1.5326,1.5356,1.5356,1.5356,1.5356,1.5356,1.4785,1.4808,1.4852,1.4892,1.4924,1.4958,1.4985,1.5018,1.5056,1.5106,1.5127,1.5172,1.5217,1.5285,1.5314,1.5352,1.5356,1.5364,1.5366,1.5368,1.5367,1.5332,1.5361,1.5361,1.5361,1.5361,1.5361,0,1.48,1.4829,1.4866,1.4917,1.4949,1.4964,1.5006,1.5033,1.5072,1.5111,1.5149,1.52,1.5245,1.5289,1.5336,1.5357,1.5368,1.5368,1.5368,1.5375,1.536,1.5351,1.5359,1.5359,1.5359,1.5359,1.5359,1.5359,1.4811,1.4852,1.4874,1.4932,1.4962,1.5006,1.5029,1.5062,1.5093,1.515,1.5186,1.5214,1.5256,1.5306,1.5348,1.536,1.5377,1.5375,1.539,1.5376,1.5375,1.5375,1.5367,1.5378,1.5378,1.5401,1.5401,1.5401]}]]